EN

Hourly Weather Lafajetowo

Today, 4 August, Wednesday

Time Temperature Precipitation Wind Pressure Humidity
00:00 +16°C° 0 mm 1 mps 749 mmHg 83%
01:00 +16°C° 0 mm 1 mps 749 mmHg 83%
02:00 +15°C° 0 mm 1 mps 749 mmHg 84%
03:00 +15°C° 0 mm 1 mps 749 mmHg 85%
04:00 +15°C° 0 mm 1 mps 749 mmHg 85%
05:00 +16°C° 0.1 mm 1 mps 749 mmHg 83%
06:00 +16°C° 0.1 mm 1 mps 749 mmHg 82%
07:00 +16°C° 0.1 mm 0 mps 749 mmHg 80%
08:00 +19°C° 0.5 mm 1 mps 749 mmHg 76%
09:00 +20°C° 0.5 mm 1 mps 749 mmHg 72%
10:00 +20°C° 0.5 mm 2 mps 749 mmHg 67%
11:00 +20°C° 0.8 mm 2 mps 749 mmHg 66%
12:00 +21°C° 0.8 mm 2 mps 749 mmHg 65%
13:00 +21°C° 0.8 mm 3 mps 748 mmHg 64%
14:00 +21°C° 0.6 mm 2 mps 748 mmHg 63%
15:00 +23°C° 0.6 mm 2 mps 748 mmHg 62%
16:00 +23°C° 0.6 mm 2 mps 748 mmHg 61%
17:00 +21°C° 0.2 mm 2 mps 748 mmHg 65%
18:00 +21°C° 0.2 mm 1 mps 748 mmHg 70%
19:00 +20°C° 0.2 mm 1 mps 748 mmHg 74%
20:00 +19°C° 0.2 mm 1 mps 748 mmHg 78%
21:00 +18°C° 0.2 mm 1 mps 748 mmHg 82%
22:00 +16°C° 0.2 mm 2 mps 748 mmHg 86%
23:00 +16°C° 0 mm 1 mps 748 mmHg 87%

Tomorrow, 5 August, Thursday

Time Temperature Precipitation Wind Pressure Humidity
00:00 +16°C° 0 mm 1 mps 748 mmHg 88%
01:00 +15°C° 0 mm 1 mps 748 mmHg 90%
02:00 +15°C° 0 mm 2 mps 747 mmHg 91%
03:00 +15°C° 0 mm 2 mps 747 mmHg 92%
04:00 +14°C° 0 mm 2 mps 747 mmHg 93%
05:00 +15°C° 0 mm 2 mps 747 mmHg 89%
06:00 +17°C° 0 mm 3 mps 747 mmHg 85%
07:00 +18°C° 0 mm 3 mps 747 mmHg 82%
08:00 +19°C° 0.2 mm 3 mps 747 mmHg 76%
09:00 +20°C° 0.2 mm 3 mps 747 mmHg 70%
10:00 +21°C° 0.2 mm 4 mps 747 mmHg 64%
11:00 +22°C° 0.4 mm 4 mps 746 mmHg 62%
12:00 +22°C° 0.4 mm 4 mps 746 mmHg 60%
13:00 +22°C° 0.4 mm 3 mps 746 mmHg 58%
14:00 +21°C° 0.5 mm 3 mps 746 mmHg 63%
15:00 +21°C° 0.5 mm 3 mps 746 mmHg 69%
16:00 +20°C° 0.5 mm 3 mps 746 mmHg 74%
17:00 +19°C° 0.3 mm 2 mps 745 mmHg 78%
18:00 +18°C° 0.3 mm 2 mps 745 mmHg 81%
19:00 +18°C° 0.3 mm 2 mps 745 mmHg 85%
20:00 +18°C° 0 mm 1 mps 745 mmHg 86%
21:00 +18°C° 0 mm 1 mps 745 mmHg 88%
22:00 +16°C° 0 mm 1 mps 745 mmHg 89%
23:00 +16°C° 0.1 mm 1 mps 745 mmHg 89%

Day after tomorrow, 6 August, Friday

Time Temperature Precipitation Wind Pressure Humidity
00:00 +16°C° 0.1 mm 1 mps 745 mmHg 90%
01:00 +16°C° 0.1 mm 1 mps 745 mmHg 90%
02:00 +16°C° 0.4 mm 1 mps 744 mmHg 91%
03:00 +16°C° 0.4 mm 1 mps 744 mmHg 93%
04:00 +15°C° 0.4 mm 2 mps 744 mmHg 95%
05:00 +15°C° 0.7 mm 2 mps 744 mmHg 95%
06:00 +15°C° 0.7 mm 2 mps 744 mmHg 96%
07:00 +15°C° 0.7 mm 2 mps 745 mmHg 97%
08:00 +16°C° 0.4 mm 1 mps 745 mmHg 95%
09:00 +16°C° 0.4 mm 1 mps 745 mmHg 93%
10:00 +16°C° 0.4 mm 1 mps 745 mmHg 92%
11:00 +18°C° 0.1 mm 1 mps 745 mmHg 86%
12:00 +20°C° 0.1 mm 1 mps 745 mmHg 80%
13:00 +21°C° 0.1 mm 1 mps 745 mmHg 74%
14:00 +21°C° 0.1 mm 1 mps 745 mmHg 68%
15:00 +22°C° 0.1 mm 1 mps 745 mmHg 63%
16:00 +23°C° 0.1 mm 1 mps 745 mmHg 58%
17:00 +22°C° 0 mm 1 mps 745 mmHg 62%
18:00 +21°C° 0 mm 1 mps 745 mmHg 66%
19:00 +20°C° 0 mm 1 mps 745 mmHg 70%
20:00 +19°C° 0 mm 1 mps 745 mmHg 73%
21:00 +18°C° 0 mm 1 mps 746 mmHg 76%
22:00 +16°C° 0 mm 1 mps 746 mmHg 79%
23:00 +16°C° 0 mm 1 mps 746 mmHg 81%

7 August, Saturday

Time Temperature Precipitation Wind Pressure Humidity
00:00 +16°C° 0 mm 1 mps 746 mmHg 82%
01:00 +15°C° 0 mm 1 mps 746 mmHg 83%
02:00 +15°C° 0 mm 1 mps 746 mmHg 84%
03:00 +15°C° 0 mm 1 mps 746 mmHg 85%
04:00 +15°C° 0 mm 1 mps 746 mmHg 86%
05:00 +16°C° 0 mm 1 mps 746 mmHg 82%
06:00 +17°C° 0 mm 2 mps 746 mmHg 77%
07:00 +19°C° 0 mm 2 mps 747 mmHg 72%
08:00 +20°C° 0 mm 2 mps 747 mmHg 66%
09:00 +23°C° 0 mm 2 mps 747 mmHg 60%
10:00 +25°C° 0 mm 2 mps 747 mmHg 54%
11:00 +25°C° 0 mm 2 mps 746 mmHg 52%
12:00 +26°C° 0 mm 2 mps 746 mmHg 49%
13:00 +27°C° 0 mm 3 mps 746 mmHg 46%
14:00 +27°C° 0 mm 2 mps 746 mmHg 47%
15:00 +27°C° 0 mm 2 mps 746 mmHg 48%
16:00 +27°C° 0 mm 2 mps 746 mmHg 50%
17:00 +26°C° 0 mm 2 mps 746 mmHg 53%
18:00 +25°C° 0 mm 3 mps 745 mmHg 56%
19:00 +24°C° 0 mm 3 mps 745 mmHg 60%
20:00 +22°C° 0 mm 3 mps 745 mmHg 60%
21:00 +21°C° 0 mm 3 mps 745 mmHg 61%
22:00 +20°C° 0 mm 3 mps 745 mmHg 62%
23:00 +20°C° 0 mm 3 mps 746 mmHg 64%

8 August, Sunday

Time Temperature Precipitation Wind Pressure Humidity
00:00 +20°C° 0 mm 3 mps 746 mmHg 66%
01:00 +19°C° 0 mm 3 mps 746 mmHg 68%
02:00 +19°C° 0 mm 3 mps 746 mmHg 70%
03:00 +19°C° 0 mm 3 mps 746 mmHg 73%
04:00 +19°C° 0 mm 3 mps 746 mmHg 75%
05:00 +19°C° 0.5 mm 3 mps 747 mmHg 80%
06:00 +18°C° 0.5 mm 3 mps 747 mmHg 85%
07:00 +18°C° 0.5 mm 4 mps 747 mmHg 90%
08:00 +19°C° 0 mm 3 mps 748 mmHg 88%
09:00 +19°C° 0 mm 3 mps 748 mmHg 86%
10:00 +19°C° 0 mm 3 mps 749 mmHg 83%
11:00 +21°C° 0 mm 3 mps 749 mmHg 73%
12:00 +23°C° 0 mm 4 mps 749 mmHg 63%
13:00 +26°C° 0 mm 4 mps 749 mmHg 52%
14:00 +26°C° 0 mm 4 mps 749 mmHg 48%
15:00 +27°C° 0 mm 4 mps 749 mmHg 45%
16:00 +27°C° 0 mm 3 mps 749 mmHg 41%
17:00 +26°C° 0 mm 3 mps 750 mmHg 46%
18:00 +25°C° 0 mm 2 mps 750 mmHg 50%
19:00 +23°C° 0 mm 2 mps 750 mmHg 54%
20:00 +23°C° 0 mm 2 mps 750 mmHg 54%
21:00 +21°C° 0 mm 2 mps 751 mmHg 54%
22:00 +20°C° 0 mm 2 mps 751 mmHg 55%
23:00 +20°C° 0 mm 3 mps 751 mmHg 58%

9 August, Monday

Time Temperature Precipitation Wind Pressure Humidity
00:00 +20°C° 0 mm 3 mps 752 mmHg 61%
01:00 +20°C° 0 mm 4 mps 752 mmHg 65%
02:00 +19°C° 0.1 mm 4 mps 752 mmHg 70%
03:00 +18°C° 0.1 mm 3 mps 752 mmHg 76%
04:00 +17°C° 0.1 mm 3 mps 752 mmHg 81%
05:00 +18°C° 0.1 mm 3 mps 752 mmHg 79%
06:00 +18°C° 0.1 mm 4 mps 753 mmHg 77%
07:00 +19°C° 0.1 mm 4 mps 753 mmHg 75%
08:00 +20°C° 0 mm 4 mps 753 mmHg 68%
09:00 +22°C° 0 mm 4 mps 753 mmHg 61%
10:00 +23°C° 0 mm 5 mps 754 mmHg 53%
11:00 +25°C° 0 mm 5 mps 754 mmHg 49%
12:00 +25°C° 0 mm 5 mps 754 mmHg 45%
13:00 +26°C° 0 mm 5 mps 754 mmHg 41%
14:00 +26°C° 0 mm 5 mps 753 mmHg 40%
15:00 +26°C° 0 mm 5 mps 753 mmHg 39%
16:00 +25°C° 0 mm 5 mps 753 mmHg 38%
17:00 +23°C° 0 mm 4 mps 754 mmHg 42%
18:00 +22°C° 0 mm 3 mps 754 mmHg 46%
19:00 +21°C° 0 mm 2 mps 754 mmHg 50%
20:00 +20°C° 0 mm 2 mps 754 mmHg 51%
21:00 +19°C° 0 mm 2 mps 754 mmHg 53%
22:00 +18°C° 0 mm 2 mps 754 mmHg 54%
23:00 +18°C° 0 mm 2 mps 754 mmHg 57%
Show more